Terminal Aerodrome Forecast
Issued by NWS Portland, ME

Home | Current Version | Previous Version | Text Only | Print | Product List | Glossary On
Versions: 1 2 3 4 5 6 7 8 9 10 11 12 13 14 15 16 17 18 19 20 21 22 23 24 25 26 27 28 29
192
FTUS41 KGYX 191620 AAA
TAFPWM
TAF AMD
KPWM 191620Z 1916/2012 06009KT P6SM BKN013 OVC028
     FM191800 07007KT 5SM -SHRA BR BKN008 OVC012
     FM200000 04012KT 2SM -RA BR OVC004=

USA.gov is the U.S. government's official web portal to all federal, state and local government web resources and services.